Weather History for Mitchell, SD

Change the Weather History Date:

Thursday, February 14, 2013

  Actual Average Record
Temperature  
Mean Temperature 25 °F 23 °F  
Max Temperature 36 °F 33 °F 65 °F (1954)
Min Temperature 13 °F 14 °F -30 °F (1936)
Degree Days  
Heating Degree Days 40 42  
Month to date heating degree days 524 607  
Since 1 July heating degree days 4805 4974  
Cooling Degree Days 0 0  
Month to date cooling degree days 0 0  
Year to date cooling degree days 0 0  
Moisture  
Dew Point 22 °F    
Average Humidity 73    
Maximum Humidity 85    
Minimum Humidity 61    
Precipitation  
Precipitation T in 0.01 in 1.45 in (1915)
Month to date precipitation 1.04 0.18  
Year to date precipitation 1.26 0.40  
Snow  
Snow T in - 18.00 in (1915)
Month to date snowfall 10.8  
Since 1 July snowfall 24.0  
Snow Depth 7.00 in    
Sea Level Pressure  
Sea Level Pressure 30.08 in    
Wind  
Wind Speed 15 mph (NNW)    
Max Wind Speed 29 mph    
Max Gust Speed 33 mph    
Visibility 7 miles    
Events Fog , Snow    
T = Trace of Precipitation, MM = Missing Value Source: NWS Daily Summary

Daily Weather History Graph

Daily Weather History Graph

Search for Another Location

Airport:

Trip Planner

Search our weather history database for the weather conditions in past years. The results will help you decide how hot, cold, wet, or windy it might be!

Date:

Astronomy

Feb. 14, 2013 Rise Set
Actual Time 7:31 AM CST 6:01 PM CST
Civil Twilight 7:02 AM CST 6:30 PM CST
Nautical Twilight 6:28 AM CST 7:04 PM CST
Astronomical Twilight 5:55 AM CST 7:37 PM CST
Moon 9:23 AM CST (2/14) 11:17 PM CST (2/14)
Length of Visible Light 11h 28m
Length of Day
10h 29m
Waxing Crescent, 22% of the Moon is Illuminated
Feb 14
Waxing Crescent
Feb 17
First Quarter
Feb 25
Full
Mar 4
Last Quarter
Mar 11
New

Hourly Weather History & Observations

Time (CST) Temp. Windchill Dew Point Humidity Pressure Visibility Wind Dir Wind Speed Gust Speed Precip Events Conditions
12:17 AM 35.6 °F 25.2 °F 30.2 °F 81% 29.81 in 10.0 mi NNW 18.4 mph - N/A   Overcast
12:53 AM 35.1 °F 25.5 °F 30.0 °F 82% 29.86 in 10.0 mi NW 15.0 mph - N/A   Overcast
1:53 AM 33.1 °F 23.9 °F 28.0 °F 82% 29.88 in 10.0 mi NW 12.7 mph - N/A   Partly Cloudy
2:53 AM 32.0 °F 22.5 °F 28.0 °F 85% 29.90 in 10.0 mi WNW 12.7 mph - N/A   Overcast
3:53 AM 33.1 °F 26.1 °F 28.0 °F 82% 29.90 in 10.0 mi West 8.1 mph - N/A   Overcast
4:25 AM 33.8 °F 27.7 °F 28.4 °F 81% 29.86 in 10.0 mi WNW 6.9 mph - N/A   Overcast
4:53 AM 34.0 °F 26.6 °F 28.9 °F 82% 29.89 in 10.0 mi West 9.2 mph - N/A   Mostly Cloudy
5:53 AM 34.0 °F 24.6 °F 28.0 °F 79% 29.91 in 10.0 mi WNW 13.8 mph - N/A   Clear
6:53 AM 33.1 °F 21.9 °F 21.9 °F 64% 29.93 in 10.0 mi NW 18.4 mph - N/A   Partly Cloudy
7:53 AM 30.9 °F 21.7 °F 23.0 °F 72% 29.96 in 10.0 mi West 11.5 mph - N/A   Mostly Cloudy
8:53 AM 33.1 °F 22.2 °F 25.0 °F 72% 29.98 in 10.0 mi WNW 17.3 mph - N/A   Overcast
9:53 AM 33.1 °F 23.0 °F 27.0 °F 78% 29.99 in 10.0 mi WNW 15.0 mph - 0.00 in   Overcast
10:53 AM 36.0 °F 24.4 °F 27.0 °F 70% 30.00 in 10.0 mi WNW 23.0 mph 32.2 mph N/A   Overcast
11:53 AM 35.1 °F 22.7 °F 28.0 °F 76% 30.02 in 10.0 mi WNW 25.3 mph 32.2 mph 0.00 in   Overcast
12:24 PM 33.8 °F 21.9 °F 28.4 °F 81% 29.99 in 10.0 mi NW 21.9 mph - 0.00 in   Overcast
12:53 PM 33.1 °F 21.2 °F 28.0 °F 82% 30.04 in 7.0 mi North 20.7 mph 33.4 mph 0.00 in Snow Light Snow
1:00 PM 30.2 °F 17.8 °F 28.4 °F 93% 30.00 in 3.0 mi North 19.6 mph - 0.00 in Snow Light Snow
1:12 PM 30.2 °F 18.9 °F 28.4 °F 93% 30.01 in 5.0 mi North 16.1 mph - 0.00 in   Overcast
1:53 PM 28.9 °F 15.4 °F 24.1 °F 82% 30.09 in 4.0 mi NNE 21.9 mph - 0.00 in Snow Light Snow
2:11 PM 28.4 °F 15.1 °F 24.8 °F 86% 30.06 in 1.8 mi North 20.7 mph - 0.00 in Snow Light Snow
2:21 PM 28.4 °F 14.4 °F 23.0 °F 80% 30.07 in 2.0 mi North 23.0 mph - 0.00 in Snow Light Snow
2:26 PM 28.4 °F 14.7 °F 24.8 °F 86% 30.08 in 1.8 mi North 21.9 mph - 0.00 in Snow Light Snow
2:33 PM 26.6 °F 12.4 °F 23.0 °F 86% 30.09 in 1.2 mi North 21.9 mph - 0.00 in Snow Light Snow
2:48 PM 26.6 °F 12.0 °F 23.0 °F 86% 30.10 in 0.8 mi North 23.0 mph - 0.00 in Snow Light Snow
2:53 PM 26.1 °F 10.4 °F 21.9 °F 84% 30.16 in 0.5 mi North 26.5 mph 29.9 mph 0.00 in Fog , Snow Light Snow
3:06 PM 24.8 °F 10.0 °F 21.2 °F 86% 30.12 in 1.0 mi North 21.9 mph 32.2 mph 0.00 in Snow Light Snow
3:13 PM 24.8 °F 10.3 °F 19.4 °F 80% 30.12 in 3.0 mi North 20.7 mph 28.8 mph 0.00 in   Overcast
3:53 PM 21.9 °F 4.8 °F 16.0 °F 78% 30.23 in 5.0 mi North 26.5 mph 29.9 mph 0.00 in   Mostly Cloudy
4:53 PM 21.0 °F 3.6 °F 15.1 °F 78% 30.28 in 10.0 mi North 26.5 mph 32.2 mph 0.00 in   Overcast
5:53 PM 19.9 °F 5.2 °F 12.9 °F 74% 30.32 in 10.0 mi North 17.3 mph - N/A   Mostly Cloudy
6:53 PM 19.0 °F 6.8 °F 12.9 °F 77% 30.35 in 10.0 mi NNW 11.5 mph - N/A   Mostly Cloudy
7:53 PM 18.0 °F 4.8 °F 12.0 °F 78% 30.37 in 10.0 mi NNW 12.7 mph - N/A   Clear
8:53 PM 16.0 °F 4.4 °F 10.0 °F 77% 30.37 in 10.0 mi NNW 9.2 mph - N/A   Clear
9:53 PM 14.0 °F 5.1 °F 9.0 °F 80% 30.38 in 10.0 mi WNW 5.8 mph - N/A   Clear
10:53 PM 14.0 °F 5.1 °F 9.0 °F 80% 30.37 in 10.0 mi West 5.8 mph - N/A   Scattered Clouds
11:53 PM 17.1 °F 7.6 °F 10.9 °F 77% 30.37 in 10.0 mi West 6.9 mph - N/A   Overcast